OBJECT BF, 61788

Orbit data source: Space-Track

You're viewing an Uncataloged Satellite

Recently launched and/or uncataloged satellites may have evolving metadata. Metadata may include but not limited to: Owner, Maufacturer, Bus, Motor, and Mission.

OBJECT BF, 61788 is a satellite in SSO that was launched on Mon, 04 Nov 2024 UTC via a SOYUZ-2-1B launch vehicle from the Vostochny Cosmodrome (VOSTO). Unknown objects in Earth's orbit typically refer to objects detected orbiting the Earth but have not yet been identified or cataloged. These objects could be anything from previously untracked satellites, spent rocket stages, debris from satellite collisions, or even natural meteoroids temporarily captured by Earth's gravity.

Loading next visibility...
Identifier
61788, 2024-199BF
Orbit
SSO
Country
Flag of TBDTBD
Related business
Manufacturer
Sputniks
Mission
Operational Commercial Communications
Bus & Motor
CUBESAT 3U?, Unknown motor
Mass
3 kg wet, 3 kg dry
Launch date (UTC)
2024-11-04 (1 year ago)
Launch vehicle
SOYUZ-2-1B
Launch site
Vostochny Cosmodrome (VOSTO)
Object type
Unknown
Shape & HBR
Box, 0.1 m
Radar Cross Section
0.035 m², Small (<0.1 m²)

Expand to show TLE details & history
Last TLE update: 8 hours ago

TLE from 8 hours ago
0 OBJECT BF
1 61788U 24199BF  25295.15684096  .00031616  00000-0  80755-3 0  9992
2 61788  97.3263 163.1933 0013569  80.1695 280.1082 15.39321335 97575
Epoch: 2025-10-22T03:45Z
TLE epoch observation values (Epoch: 2025-10-22T03:45:51.058Z)
Latitude
-0.00007°
Longitude
75.89608°
Altitude
449.62 km
Speed
7.643 km/s
True Right ascension
10h 52m 46s
True Declination
0° 00' 00"
Sunlit
Object was in daylight at epoch
Visualization orbit readout
Latitude
Unknown
Longitude
Unknown
Altitude
Unknown
Speed
Unknown
Apparent Right ascension
Unknown
Apparent Declination
Unknown
Sunlit
N/A
Visualization observer readout
Local Sidereal Time
07:10:27
Azimuth
Unknown
Elevation
Unknown
Doppler factor
Unknown
Orbital elements
Apogee altitude
454.31 km
Perigee altitude
435.793 km
Semi-major axis
6,823.189 km
Eccentricity
0.00136
Inclination
97.3263°
RAAN
163.1933°
Arg. of periapsis
80.1695°
True anomaly
279.95508°
Mean anomaly
280.1082°
Eccentric anomaly
280.03164°
Mean motion
3.8509 °/min
Orbital period
93.48 mins
BSTAR
0.00080755
Loading maneuver chart data...
Computing Atmospheric mass density...
Loading historical data...
Loading historical data...
Loading historical data...
Loading historical data...
Loading historical data...
Loading historical data...
Loading historical data...

Documentation

Showing up to 5 results
|